Showing default

FLOCK 4BE 24, 60505

Orbit data source: Space-Track

FLOCK 4BE 24, 60505 is a payload satellite owned by Planet (US) in SSO that was launched on Fri, 16 Aug 2024 UTC via an FALCON 9 launch vehicle from the Air Force Western Test Range (AFWTR). Payload-class satellites include a variety of spacecraft equipped with specific instruments for various scientific and technological missions. These include communications satellites like Starlink; space stations such as the ISS; scientific satellites like the Hubble; Earth observation satellites from companies like Planet Labs, Umbra, and HawkEye 360; GPS; miniature CubeSats for education and research; and military/defense satellites.

Loading next visibility...
Identifier
60505, 2024-149AP
Orbit
SSO
Country
Flag of USUS
Related business
Manufacturer
Planet
Mission
Operational Commercial Imaging
Bus & Motor
CUBESAT 3U, Unknown motor
Mass
5.7 kg wet, 5.7 kg dry
Launch date (UTC)
2024-08-16 (2 years ago)
Launch vehicle
FALCON 9
Launch site
Air Force Western Test Range (AFWTR)
Object type
Payload
Rocket body
Debris
Shape & HBR
Box + 2 Pan, 1.0 m
Radar Cross Section
0.072 m², Medium (>0.1 m² and < 1m²)

Expand to show TLE details & history
Last TLE update: 7 hours ago

TLE from 7 hours ago
0 FLOCK 4BE 24
1 60505U 24149AP  26126.19009445  .00018169  00000-0  43408-3 0  9992
2 60505  97.3711 210.1468 0004944  89.1515 271.0298 15.41550811 95899
Epoch: 2026-05-06T04:33Z
TLE epoch observation values (Epoch: 2026-05-06T04:33:44.160Z)
Latitude
-0.00006°
Longitude
-82.34134°
Altitude
444.593 km
Speed
7.645 km/s
True Right ascension
14h 00m 35s
True Declination
0° 00' 00"
Sunlit
Object was in full shadow at epoch
Visualization orbit readout
Latitude
Unknown
Longitude
Unknown
Altitude
Unknown
Speed
Unknown
Apparent Right ascension
Unknown
Apparent Declination
Unknown
Sunlit
N/A
Visualization observer readout
Local Sidereal Time
19:19:21
Azimuth
Unknown
Elevation
Unknown
Doppler factor
Unknown
Orbital elements
Apogee altitude
441.838 km
Perigee altitude
435.097 km
Semi-major axis
6,816.604 km
Eccentricity
0.00049
Inclination
97.3711°
RAAN
210.1468°
Arg. of periapsis
89.1515°
True anomaly
270.97315°
Mean anomaly
271.0298°
Eccentric anomaly
271.00148°
Mean motion
3.85648 °/min
Orbital period
93.35 mins
BSTAR
0.00043408
Loading maneuver chart data...
Computing Atmospheric mass density...
Loading historical data...
Loading historical data...
Loading historical data...
Loading historical data...
Loading historical data...
Loading historical data...
Loading historical data...

Documentation

Showing up to 5 results
|